Baudette, MN

10:59 PM CDT on September 29, 2016 (GMT -0500)
Baudette International

Weather History for KBDE - July, 2013

Change the Weather History Date:

Tuesday, July 16, 2013

  Actual Average Record
Temperature  
Mean Temperature 78 °F -  
Max Temperature 89 °F 82 °F 97 °F (1936)
Min Temperature 68 °F 56 °F 43 °F (1958)
Cooling Degree Days 14    
Growing Degree Days 28 (Base 50)    
Moisture  
Dew Point 65 °F    
Average Humidity 71    
Maximum Humidity 90    
Minimum Humidity 48    
Precipitation  
Precipitation 0.00 in - - ()
Sea Level Pressure  
Sea Level Pressure 30.08 in    
Wind  
Wind Speed 9 mph (WSW)    
Max Wind Speed 22 mph    
Max Gust Speed 31 mph    
Visibility 10 miles    
Events      
Averages and records for this station are not official NWS values.
T = Trace of Precipitation, MM = Missing Value Source: NWS Daily Summary

Daily Weather History Graph

Daily Weather History Graph

Search for Another Location

Airport or City:

Trip Planner

Search our weather history database for the weather conditions in past years. The results will help you decide how hot, cold, wet, or windy it might be!

Date:

Astronomy

Jul. 16, 2013 Rise Set
Actual Time 5:32 AM CDT 9:15 PM CDT
Civil Twilight 4:52 AM CDT 9:55 PM CDT
Nautical Twilight 3:58 AM CDT 10:49 PM CDT
Astronomical Twilight 2:39 AM CDT 12:07 AM CDT
Moon 2:45 PM CDT (7/16) 12:18 AM CDT (7/16)
Length of Visible Light 17h 02m
Length of Day
15h 42m
First Quarter, 56% of the Moon is Illuminated
Jul 16
First Quarter
Jul 22
Full
Jul 29
Last Quarter
Aug 6
New
Aug 14
First Quarter

Hourly Weather History & Observations

Time (CDT) Temp. Heat Index Dew Point Humidity Pressure Visibility Wind Dir Wind Speed Gust Speed Precip Events Conditions
12:53 AM 70.0 °F - 64.9 °F 84% 30.09 in 10.0 mi Variable 6.9 mph - N/A   Mostly Cloudy
1:53 AM 70.0 °F - 66.0 °F 87% 30.08 in 10.0 mi South 10.4 mph - N/A   Overcast
2:53 AM 70.0 °F - 66.9 °F 90% 30.07 in 10.0 mi South 8.1 mph - N/A   Scattered Clouds
3:53 AM 71.1 °F - 66.9 °F 87% 30.05 in 10.0 mi South 8.1 mph - N/A   Overcast
4:53 AM 71.1 °F - 66.9 °F 87% 30.05 in 10.0 mi South 6.9 mph - N/A   Mostly Cloudy
5:53 AM 72.0 °F - 66.9 °F 84% 30.05 in 8.0 mi South 8.1 mph - N/A   Mostly Cloudy
6:53 AM 72.0 °F - 66.9 °F 84% 30.03 in 9.0 mi South 11.5 mph - N/A   Partly Cloudy
7:53 AM 73.9 °F - 66.9 °F 79% 30.02 in 10.0 mi South 15.0 mph - N/A   Mostly Cloudy
8:53 AM 77.0 °F - 66.9 °F 71% 30.02 in 10.0 mi SW 17.3 mph 27.6 mph N/A   Mostly Cloudy
9:53 AM 80.1 °F 82.3 °F 66.9 °F 64% 30.02 in 10.0 mi SW 21.9 mph 25.3 mph N/A   Clear
10:53 AM 82.0 °F 84.9 °F 68.0 °F 62% 30.02 in 10.0 mi SSW 15.0 mph 23.0 mph N/A   Clear
11:53 AM 84.9 °F 88.2 °F 68.0 °F 57% 30.04 in 10.0 mi SW 10.4 mph - N/A   Partly Cloudy
12:53 PM 86.0 °F 88.2 °F 66.0 °F 51% 30.06 in 10.0 mi West 8.1 mph 17.3 mph N/A   Scattered Clouds
1:53 PM 84.9 °F 88.2 °F 68.0 °F 57% 30.05 in 10.0 mi WNW 5.8 mph - N/A   Partly Cloudy
2:53 PM 87.1 °F 90.6 °F 68.0 °F 53% 30.04 in 10.0 mi SW 8.1 mph - N/A   Clear
3:53 PM 88.0 °F 91.4 °F 68.0 °F 51% 30.04 in 10.0 mi SSW 12.7 mph 20.7 mph N/A   Clear
4:53 PM 89.1 °F 92.1 °F 66.9 °F 48% 30.06 in 10.0 mi WSW 11.5 mph 17.3 mph N/A   Overcast
5:40 PM 73.4 °F - 64.4 °F 73% 30.14 in 10.0 mi NNW 17.3 mph 31.1 mph N/A   Overcast
5:53 PM 73.9 °F - 64.0 °F 71% 30.12 in 10.0 mi North 11.5 mph 20.7 mph N/A   Overcast
6:53 PM 75.9 °F - 66.0 °F 71% 30.12 in 10.0 mi NW 4.6 mph - 0.00 in   Mostly Cloudy
7:53 PM 75.0 °F - 61.0 °F 62% 30.10 in 10.0 mi Calm Calm - N/A   Mostly Cloudy
8:53 PM 71.1 °F - 61.0 °F 70% 30.14 in 10.0 mi NNW 10.4 mph - N/A   Clear
9:53 PM 69.1 °F - 60.1 °F 73% 30.15 in 10.0 mi NW 3.5 mph - N/A   Partly Cloudy
10:53 PM 68.0 °F - 61.0 °F 78% 30.16 in 10.0 mi NW 4.6 mph - N/A   Mostly Cloudy
11:53 PM 69.1 °F - 60.1 °F 73% 30.18 in 10.0 mi Calm Calm - N/A   Overcast